Index of /20260415/WXO-DD/model_gdps/15km/12/033
Name Last modified Size Description
Parent Directory -
20260415T12Z_MSC_GDPS_AbsoluteVorticity_IsbL-0200_LatLon0.15_PT033H.grib2 2026-04-15 16:01 1.2M
20260415T12Z_MSC_GDPS_AbsoluteVorticity_IsbL-0250_LatLon0.15_PT033H.grib2 2026-04-15 16:01 1.3M
20260415T12Z_MSC_GDPS_AbsoluteVorticity_IsbL-0500_LatLon0.15_PT033H.grib2 2026-04-15 16:01 1.5M
20260415T12Z_MSC_GDPS_AbsoluteVorticity_IsbL-0700_LatLon0.15_PT033H.grib2 2026-04-15 16:01 1.3M
20260415T12Z_MSC_GDPS_AbsoluteVorticity_IsbL-0850_LatLon0.15_PT033H.grib2 2026-04-15 16:01 1.6M
20260415T12Z_MSC_GDPS_AirTemp_AGL-120m_LatLon0.15_PT033H.grib2 2026-04-15 16:01 919K
20260415T12Z_MSC_GDPS_AirTemp_AGL-2m_LatLon0.15_PT033H.grib2 2026-04-15 16:01 1.0M
20260415T12Z_MSC_GDPS_AirTemp_AGL-40m_LatLon0.15_PT033H.grib2 2026-04-15 16:01 944K
20260415T12Z_MSC_GDPS_AirTemp_AGL-80m_LatLon0.15_PT033H.grib2 2026-04-15 16:01 931K
20260415T12Z_MSC_GDPS_AirTemp_IsbL-0001_LatLon0.15_PT033H.grib2 2026-04-15 16:01 706K
20260415T12Z_MSC_GDPS_AirTemp_IsbL-0005_LatLon0.15_PT033H.grib2 2026-04-15 16:01 683K
20260415T12Z_MSC_GDPS_AirTemp_IsbL-0010_LatLon0.15_PT033H.grib2 2026-04-15 16:01 759K
20260415T12Z_MSC_GDPS_AirTemp_IsbL-0020_LatLon0.15_PT033H.grib2 2026-04-15 16:01 701K
20260415T12Z_MSC_GDPS_AirTemp_IsbL-0030_LatLon0.15_PT033H.grib2 2026-04-15 16:01 754K
20260415T12Z_MSC_GDPS_AirTemp_IsbL-0050_LatLon0.15_PT033H.grib2 2026-04-15 16:01 822K
20260415T12Z_MSC_GDPS_AirTemp_IsbL-0100_LatLon0.15_PT033H.grib2 2026-04-15 16:01 952K
20260415T12Z_MSC_GDPS_AirTemp_IsbL-0150_LatLon0.15_PT033H.grib2 2026-04-15 16:01 967K
20260415T12Z_MSC_GDPS_AirTemp_IsbL-0175_LatLon0.15_PT033H.grib2 2026-04-15 16:01 957K
20260415T12Z_MSC_GDPS_AirTemp_IsbL-0200_LatLon0.15_PT033H.grib2 2026-04-15 16:01 972K
20260415T12Z_MSC_GDPS_AirTemp_IsbL-0225_LatLon0.15_PT033H.grib2 2026-04-15 16:01 1.0M
20260415T12Z_MSC_GDPS_AirTemp_IsbL-0250_LatLon0.15_PT033H.grib2 2026-04-15 16:01 1.0M
20260415T12Z_MSC_GDPS_AirTemp_IsbL-0275_LatLon0.15_PT033H.grib2 2026-04-15 16:01 943K
20260415T12Z_MSC_GDPS_AirTemp_IsbL-0300_LatLon0.15_PT033H.grib2 2026-04-15 16:01 954K
20260415T12Z_MSC_GDPS_AirTemp_IsbL-0350_LatLon0.15_PT033H.grib2 2026-04-15 16:01 929K
20260415T12Z_MSC_GDPS_AirTemp_IsbL-0400_LatLon0.15_PT033H.grib2 2026-04-15 16:01 941K
20260415T12Z_MSC_GDPS_AirTemp_IsbL-0450_LatLon0.15_PT033H.grib2 2026-04-15 16:01 964K
20260415T12Z_MSC_GDPS_AirTemp_IsbL-0500_LatLon0.15_PT033H.grib2 2026-04-15 16:01 1.0M
20260415T12Z_MSC_GDPS_AirTemp_IsbL-0550_LatLon0.15_PT033H.grib2 2026-04-15 16:01 799K
20260415T12Z_MSC_GDPS_AirTemp_IsbL-0600_LatLon0.15_PT033H.grib2 2026-04-15 16:01 890K
20260415T12Z_MSC_GDPS_AirTemp_IsbL-0650_LatLon0.15_PT033H.grib2 2026-04-15 16:01 915K
20260415T12Z_MSC_GDPS_AirTemp_IsbL-0700_LatLon0.15_PT033H.grib2 2026-04-15 16:01 948K
20260415T12Z_MSC_GDPS_AirTemp_IsbL-0750_LatLon0.15_PT033H.grib2 2026-04-15 16:01 1.0M
20260415T12Z_MSC_GDPS_AirTemp_IsbL-0800_LatLon0.15_PT033H.grib2 2026-04-15 16:01 1.1M
20260415T12Z_MSC_GDPS_AirTemp_IsbL-0850_LatLon0.15_PT033H.grib2 2026-04-15 16:01 1.1M
20260415T12Z_MSC_GDPS_AirTemp_IsbL-0875_LatLon0.15_PT033H.grib2 2026-04-15 16:01 1.2M
20260415T12Z_MSC_GDPS_AirTemp_IsbL-0900_LatLon0.15_PT033H.grib2 2026-04-15 16:01 1.1M
20260415T12Z_MSC_GDPS_AirTemp_IsbL-0925_LatLon0.15_PT033H.grib2 2026-04-15 16:01 1.1M
20260415T12Z_MSC_GDPS_AirTemp_IsbL-0950_LatLon0.15_PT033H.grib2 2026-04-15 16:01 1.2M
20260415T12Z_MSC_GDPS_AirTemp_IsbL-0970_LatLon0.15_PT033H.grib2 2026-04-15 16:01 1.2M
20260415T12Z_MSC_GDPS_AirTemp_IsbL-0985_LatLon0.15_PT033H.grib2 2026-04-15 16:01 1.1M
20260415T12Z_MSC_GDPS_AirTemp_IsbL-1000_LatLon0.15_PT033H.grib2 2026-04-15 16:01 1.1M
20260415T12Z_MSC_GDPS_AirTemp_IsbL-1015_LatLon0.15_PT033H.grib2 2026-04-15 16:01 1.1M
20260415T12Z_MSC_GDPS_Albedo_Sfc_LatLon0.15_PT033H.grib2 2026-04-15 16:01 245K
20260415T12Z_MSC_GDPS_CAPE_Sfc_LatLon0.15_PT033H.grib2 2026-04-15 16:01 3.9M
20260415T12Z_MSC_GDPS_CIN_Sfc_LatLon0.15_PT033H.grib2 2026-04-15 16:01 2.9M
20260415T12Z_MSC_GDPS_CloudWater_EAtm_LatLon0.15_PT033H.grib2 2026-04-15 16:01 526K
20260415T12Z_MSC_GDPS_ConvectivePrecip-Accum_Sfc_LatLon0.15_PT033H.grib2 2026-04-15 16:01 2.5M
20260415T12Z_MSC_GDPS_DewPointDepression_AGL-2m_LatLon0.15_PT033H.grib2 2026-04-15 16:01 757K
20260415T12Z_MSC_GDPS_DewPointDepression_IsbL-0010_LatLon0.15_PT033H.grib2 2026-04-15 16:01 13K
20260415T12Z_MSC_GDPS_DewPointDepression_IsbL-0020_LatLon0.15_PT033H.grib2 2026-04-15 16:01 52K
20260415T12Z_MSC_GDPS_DewPointDepression_IsbL-0030_LatLon0.15_PT033H.grib2 2026-04-15 16:01 71K
20260415T12Z_MSC_GDPS_DewPointDepression_IsbL-0050_LatLon0.15_PT033H.grib2 2026-04-15 16:01 359K
20260415T12Z_MSC_GDPS_DewPointDepression_IsbL-0100_LatLon0.15_PT033H.grib2 2026-04-15 16:01 383K
20260415T12Z_MSC_GDPS_DewPointDepression_IsbL-0150_LatLon0.15_PT033H.grib2 2026-04-15 16:01 460K
20260415T12Z_MSC_GDPS_DewPointDepression_IsbL-0175_LatLon0.15_PT033H.grib2 2026-04-15 16:01 530K
20260415T12Z_MSC_GDPS_DewPointDepression_IsbL-0200_LatLon0.15_PT033H.grib2 2026-04-15 16:01 619K
20260415T12Z_MSC_GDPS_DewPointDepression_IsbL-0225_LatLon0.15_PT033H.grib2 2026-04-15 16:01 761K
20260415T12Z_MSC_GDPS_DewPointDepression_IsbL-0250_LatLon0.15_PT033H.grib2 2026-04-15 16:01 883K
20260415T12Z_MSC_GDPS_DewPointDepression_IsbL-0275_LatLon0.15_PT033H.grib2 2026-04-15 16:01 910K
20260415T12Z_MSC_GDPS_DewPointDepression_IsbL-0300_LatLon0.15_PT033H.grib2 2026-04-15 16:01 949K
20260415T12Z_MSC_GDPS_DewPointDepression_IsbL-0350_LatLon0.15_PT033H.grib2 2026-04-15 16:01 1.0M
20260415T12Z_MSC_GDPS_DewPointDepression_IsbL-0400_LatLon0.15_PT033H.grib2 2026-04-15 16:01 1.0M
20260415T12Z_MSC_GDPS_DewPointDepression_IsbL-0450_LatLon0.15_PT033H.grib2 2026-04-15 16:01 1.0M
20260415T12Z_MSC_GDPS_DewPointDepression_IsbL-0500_LatLon0.15_PT033H.grib2 2026-04-15 16:01 1.0M
20260415T12Z_MSC_GDPS_DewPointDepression_IsbL-0550_LatLon0.15_PT033H.grib2 2026-04-15 16:01 1.1M
20260415T12Z_MSC_GDPS_DewPointDepression_IsbL-0600_LatLon0.15_PT033H.grib2 2026-04-15 16:01 1.1M
20260415T12Z_MSC_GDPS_DewPointDepression_IsbL-0650_LatLon0.15_PT033H.grib2 2026-04-15 16:01 1.1M
20260415T12Z_MSC_GDPS_DewPointDepression_IsbL-0700_LatLon0.15_PT033H.grib2 2026-04-15 16:01 1.1M
20260415T12Z_MSC_GDPS_DewPointDepression_IsbL-0750_LatLon0.15_PT033H.grib2 2026-04-15 16:01 1.1M
20260415T12Z_MSC_GDPS_DewPointDepression_IsbL-0800_LatLon0.15_PT033H.grib2 2026-04-15 16:01 1.2M
20260415T12Z_MSC_GDPS_DewPointDepression_IsbL-0850_LatLon0.15_PT033H.grib2 2026-04-15 16:01 1.1M
20260415T12Z_MSC_GDPS_DewPointDepression_IsbL-0875_LatLon0.15_PT033H.grib2 2026-04-15 16:01 1.1M
20260415T12Z_MSC_GDPS_DewPointDepression_IsbL-0900_LatLon0.15_PT033H.grib2 2026-04-15 16:01 1.1M
20260415T12Z_MSC_GDPS_DewPointDepression_IsbL-0925_LatLon0.15_PT033H.grib2 2026-04-15 16:01 1.0M
20260415T12Z_MSC_GDPS_DewPointDepression_IsbL-0950_LatLon0.15_PT033H.grib2 2026-04-15 16:01 1.0M
20260415T12Z_MSC_GDPS_DewPointDepression_IsbL-0970_LatLon0.15_PT033H.grib2 2026-04-15 16:01 1.0M
20260415T12Z_MSC_GDPS_DewPointDepression_IsbL-0985_LatLon0.15_PT033H.grib2 2026-04-15 16:01 1.0M
20260415T12Z_MSC_GDPS_DewPointDepression_IsbL-1000_LatLon0.15_PT033H.grib2 2026-04-15 16:01 1.0M
20260415T12Z_MSC_GDPS_DewPointDepression_IsbL-1015_LatLon0.15_PT033H.grib2 2026-04-15 16:01 919K
20260415T12Z_MSC_GDPS_DewPoint_AGL-2m_LatLon0.15_PT033H.grib2 2026-04-15 16:01 612K
20260415T12Z_MSC_GDPS_DownwardLongwaveRadiationFlux-Accum_Sfc_LatLon0.15_PT033H.grib2 2026-04-15 16:01 777K
20260415T12Z_MSC_GDPS_DownwardShortwaveRadiationFlux-Accum_NTAtm_LatLon0.15_PT033H.grib2 2026-04-15 16:01 300K
20260415T12Z_MSC_GDPS_DownwardShortwaveRadiationFlux-Accum_Sfc_LatLon0.15_PT033H.grib2 2026-04-15 16:01 941K
20260415T12Z_MSC_GDPS_FreezingRain-Accum1h_Sfc_LatLon0.15_PT033H.grib2 2026-04-15 16:01 35K
20260415T12Z_MSC_GDPS_FreezingRain-Accum3h_Sfc_LatLon0.15_PT033H.grib2 2026-04-15 16:01 29K
20260415T12Z_MSC_GDPS_FreezingRain-Accum_Sfc_LatLon0.15_PT033H.grib2 2026-04-15 16:01 156K
20260415T12Z_MSC_GDPS_GeopotentialHeight_IsbL-0001_LatLon0.15_PT033H.grib2 2026-04-15 16:01 401K
20260415T12Z_MSC_GDPS_GeopotentialHeight_IsbL-0005_LatLon0.15_PT033H.grib2 2026-04-15 16:01 496K
20260415T12Z_MSC_GDPS_GeopotentialHeight_IsbL-0010_LatLon0.15_PT033H.grib2 2026-04-15 16:01 578K
20260415T12Z_MSC_GDPS_GeopotentialHeight_IsbL-0020_LatLon0.15_PT033H.grib2 2026-04-15 16:01 576K
20260415T12Z_MSC_GDPS_GeopotentialHeight_IsbL-0030_LatLon0.15_PT033H.grib2 2026-04-15 16:01 581K
20260415T12Z_MSC_GDPS_GeopotentialHeight_IsbL-0050_LatLon0.15_PT033H.grib2 2026-04-15 16:01 513K
20260415T12Z_MSC_GDPS_GeopotentialHeight_IsbL-0100_LatLon0.15_PT033H.grib2 2026-04-15 16:01 615K
20260415T12Z_MSC_GDPS_GeopotentialHeight_IsbL-0150_LatLon0.15_PT033H.grib2 2026-04-15 16:01 629K
20260415T12Z_MSC_GDPS_GeopotentialHeight_IsbL-0175_LatLon0.15_PT033H.grib2 2026-04-15 16:01 631K
20260415T12Z_MSC_GDPS_GeopotentialHeight_IsbL-0200_LatLon0.15_PT033H.grib2 2026-04-15 16:01 633K
20260415T12Z_MSC_GDPS_GeopotentialHeight_IsbL-0225_LatLon0.15_PT033H.grib2 2026-04-15 16:01 636K
20260415T12Z_MSC_GDPS_GeopotentialHeight_IsbL-0250_LatLon0.15_PT033H.grib2 2026-04-15 16:01 636K
20260415T12Z_MSC_GDPS_GeopotentialHeight_IsbL-0275_LatLon0.15_PT033H.grib2 2026-04-15 16:01 639K
20260415T12Z_MSC_GDPS_GeopotentialHeight_IsbL-0300_LatLon0.15_PT033H.grib2 2026-04-15 16:01 637K
20260415T12Z_MSC_GDPS_GeopotentialHeight_IsbL-0350_LatLon0.15_PT033H.grib2 2026-04-15 16:01 627K
20260415T12Z_MSC_GDPS_GeopotentialHeight_IsbL-0400_LatLon0.15_PT033H.grib2 2026-04-15 16:01 550K
20260415T12Z_MSC_GDPS_GeopotentialHeight_IsbL-0450_LatLon0.15_PT033H.grib2 2026-04-15 16:01 538K
20260415T12Z_MSC_GDPS_GeopotentialHeight_IsbL-0500_LatLon0.15_PT033H.grib2 2026-04-15 16:01 698K
20260415T12Z_MSC_GDPS_GeopotentialHeight_IsbL-0550_LatLon0.15_PT033H.grib2 2026-04-15 16:01 690K
20260415T12Z_MSC_GDPS_GeopotentialHeight_IsbL-0600_LatLon0.15_PT033H.grib2 2026-04-15 16:01 684K
20260415T12Z_MSC_GDPS_GeopotentialHeight_IsbL-0650_LatLon0.15_PT033H.grib2 2026-04-15 16:01 680K
20260415T12Z_MSC_GDPS_GeopotentialHeight_IsbL-0700_LatLon0.15_PT033H.grib2 2026-04-15 16:01 681K
20260415T12Z_MSC_GDPS_GeopotentialHeight_IsbL-0750_LatLon0.15_PT033H.grib2 2026-04-15 16:01 686K
20260415T12Z_MSC_GDPS_GeopotentialHeight_IsbL-0800_LatLon0.15_PT033H.grib2 2026-04-15 16:01 695K
20260415T12Z_MSC_GDPS_GeopotentialHeight_IsbL-0850_LatLon0.15_PT033H.grib2 2026-04-15 16:01 702K
20260415T12Z_MSC_GDPS_GeopotentialHeight_IsbL-0875_LatLon0.15_PT033H.grib2 2026-04-15 16:01 710K
20260415T12Z_MSC_GDPS_GeopotentialHeight_IsbL-0900_LatLon0.15_PT033H.grib2 2026-04-15 16:01 718K
20260415T12Z_MSC_GDPS_GeopotentialHeight_IsbL-0925_LatLon0.15_PT033H.grib2 2026-04-15 16:01 723K
20260415T12Z_MSC_GDPS_GeopotentialHeight_IsbL-0950_LatLon0.15_PT033H.grib2 2026-04-15 16:01 734K
20260415T12Z_MSC_GDPS_GeopotentialHeight_IsbL-0970_LatLon0.15_PT033H.grib2 2026-04-15 16:01 744K
20260415T12Z_MSC_GDPS_GeopotentialHeight_IsbL-0985_LatLon0.15_PT033H.grib2 2026-04-15 16:01 762K
20260415T12Z_MSC_GDPS_GeopotentialHeight_IsbL-1000_LatLon0.15_PT033H.grib2 2026-04-15 16:01 782K
20260415T12Z_MSC_GDPS_GeopotentialHeight_IsbL-1015_LatLon0.15_PT033H.grib2 2026-04-15 16:01 806K
20260415T12Z_MSC_GDPS_Humidex_Sfc_LatLon0.15_PT033H.grib2 2026-04-15 16:01 5.3M
20260415T12Z_MSC_GDPS_IcePellets-Accum1h_Sfc_LatLon0.15_PT033H.grib2 2026-04-15 16:01 15K
20260415T12Z_MSC_GDPS_IcePellets-Accum3h_Sfc_LatLon0.15_PT033H.grib2 2026-04-15 16:01 19K
20260415T12Z_MSC_GDPS_IcePellets-Accum_Sfc_LatLon0.15_PT033H.grib2 2026-04-15 16:01 68K
20260415T12Z_MSC_GDPS_KIndex_Sfc_LatLon0.15_PT033H.grib2 2026-04-15 16:01 6.3M
20260415T12Z_MSC_GDPS_LatentHeatNetFlux_Sfc_LatLon0.15_PT033H.grib2 2026-04-15 16:01 634K
20260415T12Z_MSC_GDPS_LiftedIndex-MU-VT_IsbL-0500_LatLon0.15_PT033H.grib2 2026-04-15 16:01 5.4M
20260415T12Z_MSC_GDPS_NetLongwaveRadiationFlux-Accum_Sfc_LatLon0.15_PT033H.grib2 2026-04-15 16:01 1.0M
20260415T12Z_MSC_GDPS_NetShortwaveRadiationFlux-Accum_Sfc_LatLon0.15_PT033H.grib2 2026-04-15 16:01 922K
20260415T12Z_MSC_GDPS_O3MixingRatio_LatLon0.15_PT033H.grib2 2026-04-15 16:48 2.1M
20260415T12Z_MSC_GDPS_O3_EAtm_LatLon0.15_PT033H.grib2 2026-04-15 16:48 2.1M
20260415T12Z_MSC_GDPS_PlanetaryBoundaryLayerHeight_Sfc_LatLon0.15_PT033H.grib2 2026-04-15 16:01 2.4M
20260415T12Z_MSC_GDPS_Precip-Accum1h_Sfc_LatLon0.15_PT033H.grib2 2026-04-15 16:01 3.2M
20260415T12Z_MSC_GDPS_Precip-Accum3h_Sfc_LatLon0.15_PT033H.grib2 2026-04-15 16:01 3.5M
20260415T12Z_MSC_GDPS_Precip-Accum_Sfc_LatLon0.15_PT033H.grib2 2026-04-15 16:01 4.5M
20260415T12Z_MSC_GDPS_PrecipRate_Sfc_LatLon0.15_PT033H.grib2 2026-04-15 16:01 2.9M
20260415T12Z_MSC_GDPS_PrecipType-Instant_Sfc_LatLon0.15_PT033H.grib2 2026-04-15 16:01 1.5M
20260415T12Z_MSC_GDPS_Pressure_MSL_LatLon0.15_PT033H.grib2 2026-04-15 16:01 720K
20260415T12Z_MSC_GDPS_Pressure_PVU-1.5_LatLon0.15_PT033H.grib2 2026-04-15 16:01 5.8M
20260415T12Z_MSC_GDPS_Pressure_PVU-1_LatLon0.15_PT033H.grib2 2026-04-15 16:01 6.0M
20260415T12Z_MSC_GDPS_Pressure_PVU-2_LatLon0.15_PT033H.grib2 2026-04-15 16:01 6.0M
20260415T12Z_MSC_GDPS_Pressure_Sfc_LatLon0.15_PT033H.grib2 2026-04-15 16:01 1.1M
20260415T12Z_MSC_GDPS_RadiativeTemp_Sfc_LatLon0.15_PT033H.grib2 2026-04-15 16:01 664K
20260415T12Z_MSC_GDPS_Rain-Accum1h_Sfc_LatLon0.15_PT033H.grib2 2026-04-15 16:01 1.6M
20260415T12Z_MSC_GDPS_Rain-Accum3h_Sfc_LatLon0.15_PT033H.grib2 2026-04-15 16:01 1.7M
20260415T12Z_MSC_GDPS_Rain-Accum_Sfc_LatLon0.15_PT033H.grib2 2026-04-15 16:01 3.3M
20260415T12Z_MSC_GDPS_RelativeHumidity_AGL-2m_LatLon0.15_PT033H.grib2 2026-04-15 16:01 1.0M
20260415T12Z_MSC_GDPS_RelativeHumidity_IsbL-0010_LatLon0.15_PT033H.grib2 2026-04-15 16:01 265K
20260415T12Z_MSC_GDPS_RelativeHumidity_IsbL-0020_LatLon0.15_PT033H.grib2 2026-04-15 16:01 392K
20260415T12Z_MSC_GDPS_RelativeHumidity_IsbL-0030_LatLon0.15_PT033H.grib2 2026-04-15 16:01 386K
20260415T12Z_MSC_GDPS_RelativeHumidity_IsbL-0050_LatLon0.15_PT033H.grib2 2026-04-15 16:01 505K
20260415T12Z_MSC_GDPS_RelativeHumidity_IsbL-0100_LatLon0.15_PT033H.grib2 2026-04-15 16:01 501K
20260415T12Z_MSC_GDPS_RelativeHumidity_IsbL-0150_LatLon0.15_PT033H.grib2 2026-04-15 16:01 652K
20260415T12Z_MSC_GDPS_RelativeHumidity_IsbL-0175_LatLon0.15_PT033H.grib2 2026-04-15 16:01 773K
20260415T12Z_MSC_GDPS_RelativeHumidity_IsbL-0200_LatLon0.15_PT033H.grib2 2026-04-15 16:01 686K
20260415T12Z_MSC_GDPS_RelativeHumidity_IsbL-0225_LatLon0.15_PT033H.grib2 2026-04-15 16:01 782K
20260415T12Z_MSC_GDPS_RelativeHumidity_IsbL-0250_LatLon0.15_PT033H.grib2 2026-04-15 16:01 876K
20260415T12Z_MSC_GDPS_RelativeHumidity_IsbL-0275_LatLon0.15_PT033H.grib2 2026-04-15 16:01 905K
20260415T12Z_MSC_GDPS_RelativeHumidity_IsbL-0300_LatLon0.15_PT033H.grib2 2026-04-15 16:01 952K
20260415T12Z_MSC_GDPS_RelativeHumidity_IsbL-0350_LatLon0.15_PT033H.grib2 2026-04-15 16:01 1.0M
20260415T12Z_MSC_GDPS_RelativeHumidity_IsbL-0400_LatLon0.15_PT033H.grib2 2026-04-15 16:01 1.0M
20260415T12Z_MSC_GDPS_RelativeHumidity_IsbL-0450_LatLon0.15_PT033H.grib2 2026-04-15 16:01 1.0M
20260415T12Z_MSC_GDPS_RelativeHumidity_IsbL-0500_LatLon0.15_PT033H.grib2 2026-04-15 16:01 1.0M
20260415T12Z_MSC_GDPS_RelativeHumidity_IsbL-0550_LatLon0.15_PT033H.grib2 2026-04-15 16:01 1.1M
20260415T12Z_MSC_GDPS_RelativeHumidity_IsbL-0600_LatLon0.15_PT033H.grib2 2026-04-15 16:01 1.1M
20260415T12Z_MSC_GDPS_RelativeHumidity_IsbL-0650_LatLon0.15_PT033H.grib2 2026-04-15 16:01 1.1M
20260415T12Z_MSC_GDPS_RelativeHumidity_IsbL-0700_LatLon0.15_PT033H.grib2 2026-04-15 16:01 1.1M
20260415T12Z_MSC_GDPS_RelativeHumidity_IsbL-0750_LatLon0.15_PT033H.grib2 2026-04-15 16:01 1.2M
20260415T12Z_MSC_GDPS_RelativeHumidity_IsbL-0800_LatLon0.15_PT033H.grib2 2026-04-15 16:01 1.2M
20260415T12Z_MSC_GDPS_RelativeHumidity_IsbL-0850_LatLon0.15_PT033H.grib2 2026-04-15 16:01 1.3M
20260415T12Z_MSC_GDPS_RelativeHumidity_IsbL-0875_LatLon0.15_PT033H.grib2 2026-04-15 16:01 1.3M
20260415T12Z_MSC_GDPS_RelativeHumidity_IsbL-0900_LatLon0.15_PT033H.grib2 2026-04-15 16:01 1.2M
20260415T12Z_MSC_GDPS_RelativeHumidity_IsbL-0925_LatLon0.15_PT033H.grib2 2026-04-15 16:01 1.2M
20260415T12Z_MSC_GDPS_RelativeHumidity_IsbL-0950_LatLon0.15_PT033H.grib2 2026-04-15 16:01 1.2M
20260415T12Z_MSC_GDPS_RelativeHumidity_IsbL-0970_LatLon0.15_PT033H.grib2 2026-04-15 16:01 1.2M
20260415T12Z_MSC_GDPS_RelativeHumidity_IsbL-0985_LatLon0.15_PT033H.grib2 2026-04-15 16:01 1.2M
20260415T12Z_MSC_GDPS_RelativeHumidity_IsbL-1000_LatLon0.15_PT033H.grib2 2026-04-15 16:01 1.1M
20260415T12Z_MSC_GDPS_RelativeHumidity_IsbL-1015_LatLon0.15_PT033H.grib2 2026-04-15 16:01 1.1M
20260415T12Z_MSC_GDPS_RelativeVorticity_IsbL-0200_LatLon0.15_PT033H.grib2 2026-04-15 16:01 1.2M
20260415T12Z_MSC_GDPS_RelativeVorticity_IsbL-0250_LatLon0.15_PT033H.grib2 2026-04-15 16:01 1.3M
20260415T12Z_MSC_GDPS_RelativeVorticity_IsbL-0500_LatLon0.15_PT033H.grib2 2026-04-15 16:01 1.5M
20260415T12Z_MSC_GDPS_RelativeVorticity_IsbL-0700_LatLon0.15_PT033H.grib2 2026-04-15 16:01 1.3M
20260415T12Z_MSC_GDPS_RelativeVorticity_IsbL-0850_LatLon0.15_PT033H.grib2 2026-04-15 16:01 1.6M
20260415T12Z_MSC_GDPS_Runoff-Accum_Sfc_LatLon0.15_PT033H.grib2 2026-04-15 16:01 115K
20260415T12Z_MSC_GDPS_SensibleHeatNetFlux_Sfc_LatLon0.15_PT033H.grib2 2026-04-15 16:01 596K
20260415T12Z_MSC_GDPS_ShowalterIndex_IsbL-0500_LatLon0.15_PT033H.grib2 2026-04-15 16:01 6.2M
20260415T12Z_MSC_GDPS_Snow-Accum1h_Sfc_LatLon0.15_PT033H.grib2 2026-04-15 16:01 1.0M
20260415T12Z_MSC_GDPS_Snow-Accum3h_Sfc_LatLon0.15_PT033H.grib2 2026-04-15 16:01 903K
20260415T12Z_MSC_GDPS_Snow-Accum_Sfc_LatLon0.15_PT033H.grib2 2026-04-15 16:01 1.8M
20260415T12Z_MSC_GDPS_SnowDensity_Sfc_LatLon0.15_PT033H.grib2 2026-04-15 16:01 262K
20260415T12Z_MSC_GDPS_SnowDepth_Sfc_LatLon0.15_PT033H.grib2 2026-04-15 16:01 1.8M
20260415T12Z_MSC_GDPS_SoilTemp_DBS-0to10cm_LatLon0.15_PT033H.grib2 2026-04-15 16:01 501K
20260415T12Z_MSC_GDPS_SoilTemp_Sfc_LatLon0.15_PT033H.grib2 2026-04-15 16:01 579K
20260415T12Z_MSC_GDPS_SoilVolumetricIceContent_Sfc_LatLon0.15_PT033H.grib2 2026-04-15 16:01 224K
20260415T12Z_MSC_GDPS_SoilVolumetricWaterContent_DBS-0to10cm_LatLon0.15_PT033H.grib2 2026-04-15 16:01 553K
20260415T12Z_MSC_GDPS_SoilVolumetricWaterContent_DBS-0to1cm_LatLon0.15_PT033H.grib2 2026-04-15 16:01 653K
20260415T12Z_MSC_GDPS_SpecificHumidity_AGL-120m_LatLon0.15_PT033H.grib2 2026-04-15 16:01 1.1M
20260415T12Z_MSC_GDPS_SpecificHumidity_AGL-2m_LatLon0.15_PT033H.grib2 2026-04-15 16:01 1.2M
20260415T12Z_MSC_GDPS_SpecificHumidity_AGL-40m_LatLon0.15_PT033H.grib2 2026-04-15 16:01 1.1M
20260415T12Z_MSC_GDPS_SpecificHumidity_AGL-80m_LatLon0.15_PT033H.grib2 2026-04-15 16:01 1.1M
20260415T12Z_MSC_GDPS_SpecificHumidity_IsbL-0001_LatLon0.15_PT033H.grib2 2026-04-15 16:01 1.2M
20260415T12Z_MSC_GDPS_SpecificHumidity_IsbL-0005_LatLon0.15_PT033H.grib2 2026-04-15 16:01 1.2M
20260415T12Z_MSC_GDPS_SpecificHumidity_IsbL-0010_LatLon0.15_PT033H.grib2 2026-04-15 16:01 1.3M
20260415T12Z_MSC_GDPS_SpecificHumidity_IsbL-0020_LatLon0.15_PT033H.grib2 2026-04-15 16:01 1.4M
20260415T12Z_MSC_GDPS_SpecificHumidity_IsbL-0030_LatLon0.15_PT033H.grib2 2026-04-15 16:01 1.4M
20260415T12Z_MSC_GDPS_SpecificHumidity_IsbL-0050_LatLon0.15_PT033H.grib2 2026-04-15 16:01 1.4M
20260415T12Z_MSC_GDPS_SpecificHumidity_IsbL-0100_LatLon0.15_PT033H.grib2 2026-04-15 16:01 1.3M
20260415T12Z_MSC_GDPS_SpecificHumidity_IsbL-0150_LatLon0.15_PT033H.grib2 2026-04-15 16:01 1.4M
20260415T12Z_MSC_GDPS_SpecificHumidity_IsbL-0175_LatLon0.15_PT033H.grib2 2026-04-15 16:01 1.0M
20260415T12Z_MSC_GDPS_SpecificHumidity_IsbL-0200_LatLon0.15_PT033H.grib2 2026-04-15 16:01 1.1M
20260415T12Z_MSC_GDPS_SpecificHumidity_IsbL-0225_LatLon0.15_PT033H.grib2 2026-04-15 16:01 1.2M
20260415T12Z_MSC_GDPS_SpecificHumidity_IsbL-0250_LatLon0.15_PT033H.grib2 2026-04-15 16:01 1.2M
20260415T12Z_MSC_GDPS_SpecificHumidity_IsbL-0275_LatLon0.15_PT033H.grib2 2026-04-15 16:01 1.1M
20260415T12Z_MSC_GDPS_SpecificHumidity_IsbL-0300_LatLon0.15_PT033H.grib2 2026-04-15 16:01 1.3M
20260415T12Z_MSC_GDPS_SpecificHumidity_IsbL-0350_LatLon0.15_PT033H.grib2 2026-04-15 16:01 1.2M
20260415T12Z_MSC_GDPS_SpecificHumidity_IsbL-0400_LatLon0.15_PT033H.grib2 2026-04-15 16:01 1.4M
20260415T12Z_MSC_GDPS_SpecificHumidity_IsbL-0450_LatLon0.15_PT033H.grib2 2026-04-15 16:01 1.3M
20260415T12Z_MSC_GDPS_SpecificHumidity_IsbL-0500_LatLon0.15_PT033H.grib2 2026-04-15 16:01 1.5M
20260415T12Z_MSC_GDPS_SpecificHumidity_IsbL-0550_LatLon0.15_PT033H.grib2 2026-04-15 16:01 1.6M
20260415T12Z_MSC_GDPS_SpecificHumidity_IsbL-0600_LatLon0.15_PT033H.grib2 2026-04-15 16:01 1.4M
20260415T12Z_MSC_GDPS_SpecificHumidity_IsbL-0650_LatLon0.15_PT033H.grib2 2026-04-15 16:01 1.5M
20260415T12Z_MSC_GDPS_SpecificHumidity_IsbL-0700_LatLon0.15_PT033H.grib2 2026-04-15 16:01 1.6M
20260415T12Z_MSC_GDPS_SpecificHumidity_IsbL-0750_LatLon0.15_PT033H.grib2 2026-04-15 16:01 1.7M
20260415T12Z_MSC_GDPS_SpecificHumidity_IsbL-0800_LatLon0.15_PT033H.grib2 2026-04-15 16:01 1.8M
20260415T12Z_MSC_GDPS_SpecificHumidity_IsbL-0850_LatLon0.15_PT033H.grib2 2026-04-15 16:01 1.9M
20260415T12Z_MSC_GDPS_SpecificHumidity_IsbL-0875_LatLon0.15_PT033H.grib2 2026-04-15 16:01 1.9M
20260415T12Z_MSC_GDPS_SpecificHumidity_IsbL-0900_LatLon0.15_PT033H.grib2 2026-04-15 16:01 1.9M
20260415T12Z_MSC_GDPS_SpecificHumidity_IsbL-0925_LatLon0.15_PT033H.grib2 2026-04-15 16:01 1.6M
20260415T12Z_MSC_GDPS_SpecificHumidity_IsbL-0950_LatLon0.15_PT033H.grib2 2026-04-15 16:01 1.5M
20260415T12Z_MSC_GDPS_SpecificHumidity_IsbL-0970_LatLon0.15_PT033H.grib2 2026-04-15 16:01 1.5M
20260415T12Z_MSC_GDPS_SpecificHumidity_IsbL-0985_LatLon0.15_PT033H.grib2 2026-04-15 16:01 1.5M
20260415T12Z_MSC_GDPS_SpecificHumidity_IsbL-1000_LatLon0.15_PT033H.grib2 2026-04-15 16:01 1.5M
20260415T12Z_MSC_GDPS_SpecificHumidity_IsbL-1015_LatLon0.15_PT033H.grib2 2026-04-15 16:01 1.4M
20260415T12Z_MSC_GDPS_SpecificHumidity_Sfc_LatLon0.15_PT033H.grib2 2026-04-15 16:01 651K
20260415T12Z_MSC_GDPS_Thickness_IsbL-0850to0700_LatLon0.15_PT033H.grib2 2026-04-15 16:01 466K
20260415T12Z_MSC_GDPS_Thickness_IsbL-1000to0500_LatLon0.15_PT033H.grib2 2026-04-15 16:01 374K
20260415T12Z_MSC_GDPS_Thickness_IsbL-1000to0850_LatLon0.15_PT033H.grib2 2026-04-15 16:01 490K
20260415T12Z_MSC_GDPS_TotalCloudCover_Sfc_LatLon0.15_PT033H.grib2 2026-04-15 16:01 836K
20260415T12Z_MSC_GDPS_TotalTotalsIndex_Sfc_LatLon0.15_PT033H.grib2 2026-04-15 16:01 6.2M
20260415T12Z_MSC_GDPS_UVIndex-ClearSky_Sfc_LatLon0.15_PT033H.grib2 2026-04-15 16:48 1.0M
20260415T12Z_MSC_GDPS_UVIndex_Sfc_LatLon0.15_PT033H.grib2 2026-04-15 16:48 1.5M
20260415T12Z_MSC_GDPS_UpwardLongwaveRadiationFlux_NTAtm_LatLon0.15_PT033H.grib2 2026-04-15 16:01 834K
20260415T12Z_MSC_GDPS_VerticalVelocity_IsbL-0200_LatLon0.15_PT033H.grib2 2026-04-15 16:01 1.2M
20260415T12Z_MSC_GDPS_VerticalVelocity_IsbL-0250_LatLon0.15_PT033H.grib2 2026-04-15 16:01 1.1M
20260415T12Z_MSC_GDPS_VerticalVelocity_IsbL-0500_LatLon0.15_PT033H.grib2 2026-04-15 16:01 1.0M
20260415T12Z_MSC_GDPS_VerticalVelocity_IsbL-0600_LatLon0.15_PT033H.grib2 2026-04-15 16:01 1.0M
20260415T12Z_MSC_GDPS_VerticalVelocity_IsbL-0700_LatLon0.15_PT033H.grib2 2026-04-15 16:01 1.4M
20260415T12Z_MSC_GDPS_VerticalVelocity_IsbL-0850_LatLon0.15_PT033H.grib2 2026-04-15 16:01 1.6M
20260415T12Z_MSC_GDPS_WindChill_Sfc_LatLon0.15_PT033H.grib2 2026-04-15 16:01 5.3M
20260415T12Z_MSC_GDPS_WindDir_AGL-10m_LatLon0.15_PT033H.grib2 2026-04-15 16:01 1.4M
20260415T12Z_MSC_GDPS_WindDir_AGL-120m_LatLon0.15_PT033H.grib2 2026-04-15 16:01 1.4M
20260415T12Z_MSC_GDPS_WindDir_AGL-40m_LatLon0.15_PT033H.grib2 2026-04-15 16:01 1.4M
20260415T12Z_MSC_GDPS_WindDir_AGL-80m_LatLon0.15_PT033H.grib2 2026-04-15 16:01 1.4M
20260415T12Z_MSC_GDPS_WindDir_IsbL-0001_LatLon0.15_PT033H.grib2 2026-04-15 16:01 639K
20260415T12Z_MSC_GDPS_WindDir_IsbL-0005_LatLon0.15_PT033H.grib2 2026-04-15 16:01 800K
20260415T12Z_MSC_GDPS_WindDir_IsbL-0010_LatLon0.15_PT033H.grib2 2026-04-15 16:01 862K
20260415T12Z_MSC_GDPS_WindDir_IsbL-0020_LatLon0.15_PT033H.grib2 2026-04-15 16:01 926K
20260415T12Z_MSC_GDPS_WindDir_IsbL-0030_LatLon0.15_PT033H.grib2 2026-04-15 16:01 896K
20260415T12Z_MSC_GDPS_WindDir_IsbL-0050_LatLon0.15_PT033H.grib2 2026-04-15 16:01 965K
20260415T12Z_MSC_GDPS_WindDir_IsbL-0100_LatLon0.15_PT033H.grib2 2026-04-15 16:01 1.0M
20260415T12Z_MSC_GDPS_WindDir_IsbL-0150_LatLon0.15_PT033H.grib2 2026-04-15 16:01 1.0M
20260415T12Z_MSC_GDPS_WindDir_IsbL-0175_LatLon0.15_PT033H.grib2 2026-04-15 16:01 1.0M
20260415T12Z_MSC_GDPS_WindDir_IsbL-0200_LatLon0.15_PT033H.grib2 2026-04-15 16:01 1.1M
20260415T12Z_MSC_GDPS_WindDir_IsbL-0225_LatLon0.15_PT033H.grib2 2026-04-15 16:01 1.1M
20260415T12Z_MSC_GDPS_WindDir_IsbL-0250_LatLon0.15_PT033H.grib2 2026-04-15 16:01 1.1M
20260415T12Z_MSC_GDPS_WindDir_IsbL-0275_LatLon0.15_PT033H.grib2 2026-04-15 16:01 1.2M
20260415T12Z_MSC_GDPS_WindDir_IsbL-0300_LatLon0.15_PT033H.grib2 2026-04-15 16:01 1.2M
20260415T12Z_MSC_GDPS_WindDir_IsbL-0350_LatLon0.15_PT033H.grib2 2026-04-15 16:01 1.2M
20260415T12Z_MSC_GDPS_WindDir_IsbL-0400_LatLon0.15_PT033H.grib2 2026-04-15 16:01 1.3M
20260415T12Z_MSC_GDPS_WindDir_IsbL-0450_LatLon0.15_PT033H.grib2 2026-04-15 16:01 1.3M
20260415T12Z_MSC_GDPS_WindDir_IsbL-0500_LatLon0.15_PT033H.grib2 2026-04-15 16:01 1.4M
20260415T12Z_MSC_GDPS_WindDir_IsbL-0550_LatLon0.15_PT033H.grib2 2026-04-15 16:01 1.4M
20260415T12Z_MSC_GDPS_WindDir_IsbL-0600_LatLon0.15_PT033H.grib2 2026-04-15 16:01 1.5M
20260415T12Z_MSC_GDPS_WindDir_IsbL-0650_LatLon0.15_PT033H.grib2 2026-04-15 16:01 1.6M
20260415T12Z_MSC_GDPS_WindDir_IsbL-0700_LatLon0.15_PT033H.grib2 2026-04-15 16:01 1.6M
20260415T12Z_MSC_GDPS_WindDir_IsbL-0750_LatLon0.15_PT033H.grib2 2026-04-15 16:01 1.7M
20260415T12Z_MSC_GDPS_WindDir_IsbL-0800_LatLon0.15_PT033H.grib2 2026-04-15 16:01 1.8M
20260415T12Z_MSC_GDPS_WindDir_IsbL-0850_LatLon0.15_PT033H.grib2 2026-04-15 16:01 2.0M
20260415T12Z_MSC_GDPS_WindDir_IsbL-0875_LatLon0.15_PT033H.grib2 2026-04-15 16:01 2.0M
20260415T12Z_MSC_GDPS_WindDir_IsbL-0900_LatLon0.15_PT033H.grib2 2026-04-15 16:01 2.0M
20260415T12Z_MSC_GDPS_WindDir_IsbL-0925_LatLon0.15_PT033H.grib2 2026-04-15 16:01 2.0M
20260415T12Z_MSC_GDPS_WindDir_IsbL-0950_LatLon0.15_PT033H.grib2 2026-04-15 16:01 2.0M
20260415T12Z_MSC_GDPS_WindDir_IsbL-0970_LatLon0.15_PT033H.grib2 2026-04-15 16:01 2.0M
20260415T12Z_MSC_GDPS_WindDir_IsbL-0985_LatLon0.15_PT033H.grib2 2026-04-15 16:01 2.1M
20260415T12Z_MSC_GDPS_WindDir_IsbL-1000_LatLon0.15_PT033H.grib2 2026-04-15 16:01 2.1M
20260415T12Z_MSC_GDPS_WindDir_IsbL-1015_LatLon0.15_PT033H.grib2 2026-04-15 16:01 2.1M
20260415T12Z_MSC_GDPS_WindGust-Max_AGL-10m_LatLon0.15_PT033H.grib2 2026-04-15 16:01 2.2M
20260415T12Z_MSC_GDPS_WindGust-Min_AGL-10m_LatLon0.15_PT033H.grib2 2026-04-15 16:01 2.2M
20260415T12Z_MSC_GDPS_WindGust_AGL-10m_LatLon0.15_PT033H.grib2 2026-04-15 16:01 2.1M
20260415T12Z_MSC_GDPS_WindSpeed_AGL-10m_LatLon0.15_PT033H.grib2 2026-04-15 16:01 1.1M
20260415T12Z_MSC_GDPS_WindSpeed_AGL-120m_LatLon0.15_PT033H.grib2 2026-04-15 16:01 1.3M
20260415T12Z_MSC_GDPS_WindSpeed_AGL-40m_LatLon0.15_PT033H.grib2 2026-04-15 16:01 1.2M
20260415T12Z_MSC_GDPS_WindSpeed_AGL-80m_LatLon0.15_PT033H.grib2 2026-04-15 16:01 1.3M
20260415T12Z_MSC_GDPS_WindSpeed_IsbL-0001_LatLon0.15_PT033H.grib2 2026-04-15 16:01 635K
20260415T12Z_MSC_GDPS_WindSpeed_IsbL-0005_LatLon0.15_PT033H.grib2 2026-04-15 16:01 692K
20260415T12Z_MSC_GDPS_WindSpeed_IsbL-0010_LatLon0.15_PT033H.grib2 2026-04-15 16:01 710K
20260415T12Z_MSC_GDPS_WindSpeed_IsbL-0020_LatLon0.15_PT033H.grib2 2026-04-15 16:01 673K
20260415T12Z_MSC_GDPS_WindSpeed_IsbL-0030_LatLon0.15_PT033H.grib2 2026-04-15 16:01 867K
20260415T12Z_MSC_GDPS_WindSpeed_IsbL-0050_LatLon0.15_PT033H.grib2 2026-04-15 16:01 923K
20260415T12Z_MSC_GDPS_WindSpeed_IsbL-0100_LatLon0.15_PT033H.grib2 2026-04-15 16:01 1.1M
20260415T12Z_MSC_GDPS_WindSpeed_IsbL-0150_LatLon0.15_PT033H.grib2 2026-04-15 16:01 1.0M
20260415T12Z_MSC_GDPS_WindSpeed_IsbL-0175_LatLon0.15_PT033H.grib2 2026-04-15 16:01 1.0M
20260415T12Z_MSC_GDPS_WindSpeed_IsbL-0200_LatLon0.15_PT033H.grib2 2026-04-15 16:01 1.1M
20260415T12Z_MSC_GDPS_WindSpeed_IsbL-0225_LatLon0.15_PT033H.grib2 2026-04-15 16:01 1.1M
20260415T12Z_MSC_GDPS_WindSpeed_IsbL-0250_LatLon0.15_PT033H.grib2 2026-04-15 16:01 1.1M
20260415T12Z_MSC_GDPS_WindSpeed_IsbL-0275_LatLon0.15_PT033H.grib2 2026-04-15 16:01 1.1M
20260415T12Z_MSC_GDPS_WindSpeed_IsbL-0300_LatLon0.15_PT033H.grib2 2026-04-15 16:01 1.1M
20260415T12Z_MSC_GDPS_WindSpeed_IsbL-0350_LatLon0.15_PT033H.grib2 2026-04-15 16:01 1.1M
20260415T12Z_MSC_GDPS_WindSpeed_IsbL-0400_LatLon0.15_PT033H.grib2 2026-04-15 16:01 1.1M
20260415T12Z_MSC_GDPS_WindSpeed_IsbL-0450_LatLon0.15_PT033H.grib2 2026-04-15 16:01 1.1M
20260415T12Z_MSC_GDPS_WindSpeed_IsbL-0500_LatLon0.15_PT033H.grib2 2026-04-15 16:01 1.1M
20260415T12Z_MSC_GDPS_WindSpeed_IsbL-0550_LatLon0.15_PT033H.grib2 2026-04-15 16:01 1.1M
20260415T12Z_MSC_GDPS_WindSpeed_IsbL-0600_LatLon0.15_PT033H.grib2 2026-04-15 16:01 1.4M
20260415T12Z_MSC_GDPS_WindSpeed_IsbL-0650_LatLon0.15_PT033H.grib2 2026-04-15 16:01 1.4M
20260415T12Z_MSC_GDPS_WindSpeed_IsbL-0700_LatLon0.15_PT033H.grib2 2026-04-15 16:01 1.6M
20260415T12Z_MSC_GDPS_WindSpeed_IsbL-0750_LatLon0.15_PT033H.grib2 2026-04-15 16:01 1.6M
20260415T12Z_MSC_GDPS_WindSpeed_IsbL-0800_LatLon0.15_PT033H.grib2 2026-04-15 16:01 1.7M
20260415T12Z_MSC_GDPS_WindSpeed_IsbL-0850_LatLon0.15_PT033H.grib2 2026-04-15 16:01 1.7M
20260415T12Z_MSC_GDPS_WindSpeed_IsbL-0875_LatLon0.15_PT033H.grib2 2026-04-15 16:01 1.8M
20260415T12Z_MSC_GDPS_WindSpeed_IsbL-0900_LatLon0.15_PT033H.grib2 2026-04-15 16:01 1.8M
20260415T12Z_MSC_GDPS_WindSpeed_IsbL-0925_LatLon0.15_PT033H.grib2 2026-04-15 16:01 1.8M
20260415T12Z_MSC_GDPS_WindSpeed_IsbL-0950_LatLon0.15_PT033H.grib2 2026-04-15 16:01 1.9M
20260415T12Z_MSC_GDPS_WindSpeed_IsbL-0970_LatLon0.15_PT033H.grib2 2026-04-15 16:01 1.9M
20260415T12Z_MSC_GDPS_WindSpeed_IsbL-0985_LatLon0.15_PT033H.grib2 2026-04-15 16:01 1.9M
20260415T12Z_MSC_GDPS_WindSpeed_IsbL-1000_LatLon0.15_PT033H.grib2 2026-04-15 16:01 1.9M
20260415T12Z_MSC_GDPS_WindSpeed_IsbL-1015_LatLon0.15_PT033H.grib2 2026-04-15 16:01 1.8M
20260415T12Z_MSC_GDPS_WindU_AGL-10m_LatLon0.15_PT033H.grib2 2026-04-15 16:01 1.3M
20260415T12Z_MSC_GDPS_WindU_AGL-120m_LatLon0.15_PT033H.grib2 2026-04-15 16:01 1.0M
20260415T12Z_MSC_GDPS_WindU_AGL-40m_LatLon0.15_PT033H.grib2 2026-04-15 16:01 1.0M
20260415T12Z_MSC_GDPS_WindU_AGL-80m_LatLon0.15_PT033H.grib2 2026-04-15 16:01 1.0M
20260415T12Z_MSC_GDPS_WindU_IsbL-0001_LatLon0.15_PT033H.grib2 2026-04-15 16:01 496K
20260415T12Z_MSC_GDPS_WindU_IsbL-0005_LatLon0.15_PT033H.grib2 2026-04-15 16:01 688K
20260415T12Z_MSC_GDPS_WindU_IsbL-0010_LatLon0.15_PT033H.grib2 2026-04-15 16:01 703K
20260415T12Z_MSC_GDPS_WindU_IsbL-0020_LatLon0.15_PT033H.grib2 2026-04-15 16:01 740K
20260415T12Z_MSC_GDPS_WindU_IsbL-0030_LatLon0.15_PT033H.grib2 2026-04-15 16:01 741K
20260415T12Z_MSC_GDPS_WindU_IsbL-0050_LatLon0.15_PT033H.grib2 2026-04-15 16:01 713K
20260415T12Z_MSC_GDPS_WindU_IsbL-0100_LatLon0.15_PT033H.grib2 2026-04-15 16:01 876K
20260415T12Z_MSC_GDPS_WindU_IsbL-0150_LatLon0.15_PT033H.grib2 2026-04-15 16:01 1.0M
20260415T12Z_MSC_GDPS_WindU_IsbL-0175_LatLon0.15_PT033H.grib2 2026-04-15 16:01 1.0M
20260415T12Z_MSC_GDPS_WindU_IsbL-0200_LatLon0.15_PT033H.grib2 2026-04-15 16:01 1.0M
20260415T12Z_MSC_GDPS_WindU_IsbL-0225_LatLon0.15_PT033H.grib2 2026-04-15 16:01 1.1M
20260415T12Z_MSC_GDPS_WindU_IsbL-0250_LatLon0.15_PT033H.grib2 2026-04-15 16:01 858K
20260415T12Z_MSC_GDPS_WindU_IsbL-0275_LatLon0.15_PT033H.grib2 2026-04-15 16:01 886K
20260415T12Z_MSC_GDPS_WindU_IsbL-0300_LatLon0.15_PT033H.grib2 2026-04-15 16:01 879K
20260415T12Z_MSC_GDPS_WindU_IsbL-0350_LatLon0.15_PT033H.grib2 2026-04-15 16:01 895K
20260415T12Z_MSC_GDPS_WindU_IsbL-0400_LatLon0.15_PT033H.grib2 2026-04-15 16:01 896K
20260415T12Z_MSC_GDPS_WindU_IsbL-0450_LatLon0.15_PT033H.grib2 2026-04-15 16:01 896K
20260415T12Z_MSC_GDPS_WindU_IsbL-0500_LatLon0.15_PT033H.grib2 2026-04-15 16:01 1.1M
20260415T12Z_MSC_GDPS_WindU_IsbL-0550_LatLon0.15_PT033H.grib2 2026-04-15 16:01 1.1M
20260415T12Z_MSC_GDPS_WindU_IsbL-0600_LatLon0.15_PT033H.grib2 2026-04-15 16:01 1.1M
20260415T12Z_MSC_GDPS_WindU_IsbL-0650_LatLon0.15_PT033H.grib2 2026-04-15 16:01 1.2M
20260415T12Z_MSC_GDPS_WindU_IsbL-0700_LatLon0.15_PT033H.grib2 2026-04-15 16:01 1.2M
20260415T12Z_MSC_GDPS_WindU_IsbL-0750_LatLon0.15_PT033H.grib2 2026-04-15 16:01 1.3M
20260415T12Z_MSC_GDPS_WindU_IsbL-0800_LatLon0.15_PT033H.grib2 2026-04-15 16:01 1.3M
20260415T12Z_MSC_GDPS_WindU_IsbL-0850_LatLon0.15_PT033H.grib2 2026-04-15 16:01 1.4M
20260415T12Z_MSC_GDPS_WindU_IsbL-0875_LatLon0.15_PT033H.grib2 2026-04-15 16:01 1.5M
20260415T12Z_MSC_GDPS_WindU_IsbL-0900_LatLon0.15_PT033H.grib2 2026-04-15 16:01 1.5M
20260415T12Z_MSC_GDPS_WindU_IsbL-0925_LatLon0.15_PT033H.grib2 2026-04-15 16:01 1.5M
20260415T12Z_MSC_GDPS_WindU_IsbL-0950_LatLon0.15_PT033H.grib2 2026-04-15 16:01 1.4M
20260415T12Z_MSC_GDPS_WindU_IsbL-0970_LatLon0.15_PT033H.grib2 2026-04-15 16:01 1.4M
20260415T12Z_MSC_GDPS_WindU_IsbL-0985_LatLon0.15_PT033H.grib2 2026-04-15 16:01 1.4M
20260415T12Z_MSC_GDPS_WindU_IsbL-1000_LatLon0.15_PT033H.grib2 2026-04-15 16:01 1.4M
20260415T12Z_MSC_GDPS_WindU_IsbL-1015_LatLon0.15_PT033H.grib2 2026-04-15 16:01 1.4M
20260415T12Z_MSC_GDPS_WindV_AGL-10m_LatLon0.15_PT033H.grib2 2026-04-15 16:01 1.6M
20260415T12Z_MSC_GDPS_WindV_AGL-120m_LatLon0.15_PT033H.grib2 2026-04-15 16:01 1.0M
20260415T12Z_MSC_GDPS_WindV_AGL-40m_LatLon0.15_PT033H.grib2 2026-04-15 16:01 1.0M
20260415T12Z_MSC_GDPS_WindV_AGL-80m_LatLon0.15_PT033H.grib2 2026-04-15 16:01 1.0M
20260415T12Z_MSC_GDPS_WindV_IsbL-0001_LatLon0.15_PT033H.grib2 2026-04-15 16:01 548K
20260415T12Z_MSC_GDPS_WindV_IsbL-0005_LatLon0.15_PT033H.grib2 2026-04-15 16:01 778K
20260415T12Z_MSC_GDPS_WindV_IsbL-0010_LatLon0.15_PT033H.grib2 2026-04-15 16:01 809K
20260415T12Z_MSC_GDPS_WindV_IsbL-0020_LatLon0.15_PT033H.grib2 2026-04-15 16:01 861K
20260415T12Z_MSC_GDPS_WindV_IsbL-0030_LatLon0.15_PT033H.grib2 2026-04-15 16:01 862K
20260415T12Z_MSC_GDPS_WindV_IsbL-0050_LatLon0.15_PT033H.grib2 2026-04-15 16:01 914K
20260415T12Z_MSC_GDPS_WindV_IsbL-0100_LatLon0.15_PT033H.grib2 2026-04-15 16:01 861K
20260415T12Z_MSC_GDPS_WindV_IsbL-0150_LatLon0.15_PT033H.grib2 2026-04-15 16:01 1.0M
20260415T12Z_MSC_GDPS_WindV_IsbL-0175_LatLon0.15_PT033H.grib2 2026-04-15 16:01 1.0M
20260415T12Z_MSC_GDPS_WindV_IsbL-0200_LatLon0.15_PT033H.grib2 2026-04-15 16:01 1.0M
20260415T12Z_MSC_GDPS_WindV_IsbL-0225_LatLon0.15_PT033H.grib2 2026-04-15 16:01 848K
20260415T12Z_MSC_GDPS_WindV_IsbL-0250_LatLon0.15_PT033H.grib2 2026-04-15 16:01 851K
20260415T12Z_MSC_GDPS_WindV_IsbL-0275_LatLon0.15_PT033H.grib2 2026-04-15 16:01 880K
20260415T12Z_MSC_GDPS_WindV_IsbL-0300_LatLon0.15_PT033H.grib2 2026-04-15 16:01 871K
20260415T12Z_MSC_GDPS_WindV_IsbL-0350_LatLon0.15_PT033H.grib2 2026-04-15 16:01 887K
20260415T12Z_MSC_GDPS_WindV_IsbL-0400_LatLon0.15_PT033H.grib2 2026-04-15 16:01 886K
20260415T12Z_MSC_GDPS_WindV_IsbL-0450_LatLon0.15_PT033H.grib2 2026-04-15 16:01 884K
20260415T12Z_MSC_GDPS_WindV_IsbL-0500_LatLon0.15_PT033H.grib2 2026-04-15 16:01 1.1M
20260415T12Z_MSC_GDPS_WindV_IsbL-0550_LatLon0.15_PT033H.grib2 2026-04-15 16:01 1.1M
20260415T12Z_MSC_GDPS_WindV_IsbL-0600_LatLon0.15_PT033H.grib2 2026-04-15 16:01 1.1M
20260415T12Z_MSC_GDPS_WindV_IsbL-0650_LatLon0.15_PT033H.grib2 2026-04-15 16:01 1.2M
20260415T12Z_MSC_GDPS_WindV_IsbL-0700_LatLon0.15_PT033H.grib2 2026-04-15 16:01 1.2M
20260415T12Z_MSC_GDPS_WindV_IsbL-0750_LatLon0.15_PT033H.grib2 2026-04-15 16:01 1.2M
20260415T12Z_MSC_GDPS_WindV_IsbL-0800_LatLon0.15_PT033H.grib2 2026-04-15 16:01 1.3M
20260415T12Z_MSC_GDPS_WindV_IsbL-0850_LatLon0.15_PT033H.grib2 2026-04-15 16:01 1.4M
20260415T12Z_MSC_GDPS_WindV_IsbL-0875_LatLon0.15_PT033H.grib2 2026-04-15 16:01 1.4M
20260415T12Z_MSC_GDPS_WindV_IsbL-0900_LatLon0.15_PT033H.grib2 2026-04-15 16:01 1.5M
20260415T12Z_MSC_GDPS_WindV_IsbL-0925_LatLon0.15_PT033H.grib2 2026-04-15 16:01 1.5M
20260415T12Z_MSC_GDPS_WindV_IsbL-0950_LatLon0.15_PT033H.grib2 2026-04-15 16:01 1.4M
20260415T12Z_MSC_GDPS_WindV_IsbL-0970_LatLon0.15_PT033H.grib2 2026-04-15 16:01 1.4M
20260415T12Z_MSC_GDPS_WindV_IsbL-0985_LatLon0.15_PT033H.grib2 2026-04-15 16:01 1.4M
20260415T12Z_MSC_GDPS_WindV_IsbL-1000_LatLon0.15_PT033H.grib2 2026-04-15 16:01 1.7M
20260415T12Z_MSC_GDPS_WindV_IsbL-1015_LatLon0.15_PT033H.grib2 2026-04-15 16:01 1.7M